User: anonymous   Login
Location: *
(40.7765°S, 106.5327°E)
Time: 07:28:52
(UTC+00:00)
Language:

Cosmos 1782 - Orbit

View from above orbital plane
View from above orbital plane
View from above satellite
View from above satellite

Ground track
Ground track

The orbit data is extracted from the following two-line orbital elements,

1 16986U 86074A   22278.80857543  .00006217  00000-0  38971-3 0  9993
2 16986  82.5253  35.0973 0007969 247.7099 112.3286 15.09155201941403
Epoch (UTC): 05 October 2022 19:24:20
Eccentricity: 0.0007969
inclination: 82.5253°
perigee height: 533 km
apogee height: 544 km
right ascension of ascending node: 35.0973°
argument of perigee: 247.7099°
revolutions per day: 15.09155201
mean anomaly at epoch: 112.3286°
orbit number at epoch: 94140

The dashed part of the orbit path shows where the satellite is in the earth's shadow,  

DLR